Regional Weather Roundup
Issued by NWS

Home | Current Version | Previous Version | Text Only | Print | Product List | Glossary Off
Versions: 1 2 3 4 5 6 7 8 9 10 11 12 13 14 15 16 17 18 19 20 21 22 23 24 25 26 27 28 29 30 31 32 33 34 35 36 37 38 39 40 41 42 43 44 45 46 47 48 49 50

784
ASUS43 KLSX 191210
RWRMO

WEATHER SUMMARY FOR MISSOURI
NATIONAL WEATHER SERVICE SPRINGFIELD MO
600 AM CST SUN FEB 19 2017

NOTE: "FAIR" INDICATES FEW OR NO CLOUDS BELOW 12,000 FEET WITH NO
       SIGNIFICANT WEATHER AND/OR OBSTRUCTIONS TO VISIBILITY.
       CURRENT SKY AND/OR WEATHER CONDITIONS ARE NOT AVAILABLE FOR
       CHILLICOTHE AND FARMINGTON.

MOZ001>031-035>038-043-044-053-054-191300-
...NORTHERN AND WESTERN MISSOURI...

CITY           SKY/WX    TMP DP  RH WIND       PRES   REMARKS
KANSAS CTY INT CLEAR     45  45 100 S9        29.94R FOG
6HR MIN TEMP:  44; 6HR MAX TEMP:  53;

KANSAS C DTWN  CLEAR     50  48  93 S3        29.94R
6HR MIN TEMP:  49; 6HR MAX TEMP:  57;

LEE`S SUMMIT   CLEAR     49  48  97 S8        29.95R
6HR MIN TEMP:  47; 6HR MAX TEMP:  55;

ST JOSEPH      CLEAR     39  39 100 SE5       29.93S FOG
6HR MIN TEMP:  36; 6HR MAX TEMP:  45;

CHILLICOTHE      N/A     37  35  92 CALM      29.96R
6HR MIN TEMP:  35; 6HR MAX TEMP:  42;

KIRKSVILLE     CLEAR     35  32  88 SW6       29.97R
6HR MIN TEMP:  35; 6HR MAX TEMP:  44;


$$
MOZ066>068-077>081-088>096-101>105-191300-
...SOUTHWEST MISSOURI...

CITY           SKY/WX    TMP DP  RH WIND       PRES   REMARKS
SPRINGFIELD    CLEAR     45  43  93 E7        29.98R FOG
6HR MIN TEMP:  44; 6HR MAX TEMP:  48;

JOPLIN         PTCLDY    45  45 100 E5        29.96R FOG
6HR MIN TEMP:  42; 6HR MAX TEMP:  49;

BRANSON        CLEAR     46  46 100 CALM      30.00R

$$
MOZ032>034-039>042-045>050-055>058-069>072-191300-
...CENTRAL MISSOURI...

CITY           SKY/WX    TMP DP  RH WIND       PRES   REMARKS
COLUMBIA       CLEAR     46  45  96 S6        30.00R FOG
6HR MIN TEMP:  44; 6HR MAX TEMP:  54;

JEFFERSON CITY FOG       38  38 100 CALM      30.01R VSB 1/4
6HR MIN TEMP:  35; 6HR MAX TEMP:  44;

ROLLA          FOG       42  42 100 S7        30.00R VSB 1/4
6HR MIN TEMP:  41; 6HR MAX TEMP:  50;

SEDALIA        FOG       42  42 100 S5        29.99S VSB 1/4
6HR MIN TEMP:  42; 6HR MAX TEMP:  55;

WHITEMAN AFB   FOG       43  43 100 S6        29.96S VSB 1/4
WARRENSBURG    FOG       39  39 100 S7        29.97R VSB 1/4
OSAGE BEACH    CLEAR     45  43  93 S3        30.02R FOG

$$
MOZ051-052-059>065-191300-
...EAST CENTRAL MISSOURI...

CITY           SKY/WX    TMP DP  RH WIND       PRES   REMARKS
ST LOUIS INTL  CLEAR     43  41  93 CALM      30.00R
6HR MIN TEMP:  41; 6HR MAX TEMP:  52;

SPIRIT OF STL  FOG       38  38 100 CALM      30.00R VSB 1/2
6HR MIN TEMP:  37; 6HR MAX TEMP:  52;

ST CHARLES     FOG       37  37 100 E3        30.00R VSB 1/4
6HR MIN TEMP:  36; 6HR MAX TEMP:  40;


$$
MOZ072>076-082>087-097>100-106>115-191300-
...SOUTH CENTRAL AND SOUTHEAST MISSOURI...

CITY           SKY/WX    TMP DP  RH WIND       PRES   REMARKS
CAPE GIRARDEAU FOG       49  48  97 S3        30.03R VSB 1/2
6HR MIN TEMP:  49; 6HR MAX TEMP:  50;

FARMINGTON     FOG       45  45 100 CALM      30.02R VSB 1/4
6HR MIN TEMP:  45; 6HR MAX TEMP:  52;

POPLAR BLUFF   FOG       47  47 100 CALM      30.03R VSB 1/4
6HR MIN TEMP:  44; 6HR MAX TEMP:  49;

WEST PLAINS    FOG       43  43 100 CALM      30.03R VSB 1/4
6HR MIN TEMP:  39; 6HR MAX TEMP:  49;


$$




USA.gov is the U.S. government's official web portal to all federal, state and local government web resources and services.